Regional Weather Roundup
Issued by NWS

Home | Current Version | Previous Version | Graphics & Text | Print | Product List | Glossary Off
Versions: 1 2 3 4 5 6 7 8 9 10 11 12 13 14 15 16 17 18 19 20 21 22 23 24 25 26 27 28 29 30 31 32 33 34 35 36 37 38 39 40 41 42 43 44 45 46 47 48 49 50

000
ASUS43 KTOP 291708
RWRKS

WEATHER ROUNDUP FOR KANSAS
NATIONAL WEATHER SERVICE GOODLAND KS
1200 PM CDT TUE JUL 29 2014

NOTE:  "FAIR" INDICATES FEW OR NO CLOUDS BELOW 12,000 FEET WITH NO
SIGNIFICANT WEATHER AND/OR OBSTRUCTIONS TO VISIBILITY.

KSZ001>006-013>018-027>032-041>047-291800-
NORTHWEST KANSAS

CITY           SKY/WX    TMP DP  RH WIND       PRES   REMARKS
GOODLAND       PTSUNNY   79  63  57 S14G21    30.21F
HAYS           SUNNY     81  59  47 SE9       30.20F
HILL CITY      SUNNY     82  58  43 S10G20    30.20
RUSSELL        SUNNY     80  57  45 S6        30.19S
$$

KSZ061>065-074>080-084>089-291800-
SOUTHWEST KANSAS

CITY           SKY/WX    TMP DP  RH WIND       PRES   REMARKS
DODGE CITY     SUNNY     82  59  45 S15G22    30.20F
ELKHART          N/A     70  64  81 S13         N/A
GARDEN CITY    MOSUNNY   78  62  57 S14G23    30.20S
GREAT BEND     SUNNY     81  61  50 S9        30.18F
LIBERAL        CLOUDY    66  61  82 S14       30.25F THUNDER
PRATT          SUNNY     81  57  44 S8        30.21F
$$

KSZ066>073-081>083-090>101-291800-
SOUTHEAST KANSAS

CITY           SKY/WX    TMP DP  RH WIND       PRES   REMARKS
CHANUTE        PTSUNNY   77  60  55 CALM      30.20S
COFFEYVILLE    MOSUNNY   78  59  51 NW3       30.18F
HUTCHINSON     SUNNY     82  61  48 VRB6      30.19F
MEDICINE LODGE   N/A     83  60  45 CALM      30.18F
NEWTON         SUNNY     79  57  47 S7        30.24S
PARSONS        PTSUNNY   78  60  53 CALM      30.20F
WICHITA INTL   MOSUNNY   83  60  45 SE6       30.18F
WICHITA JABRA  MOSUNNY   81  60  48 E8        30.19F
WICHITA MCCONL PTSUNNY   81  57  44 SE2       30.19F
WINFIELD       SUNNY     85  59  41 SE8       30.19F
$$

KSZ007>012-019>026-033>040-048>060-102>105-291800-
NORTHEAST KANSAS

CITY           SKY/WX    TMP DP  RH WIND       PRES   REMARKS
CONCORDIA      PTSUNNY   68  61  78 SE5       30.23F
EMPORIA        PTSUNNY   73  59  61 N6        30.22R
LAWRENCE       MOSUNNY   81  56  42 NW10      30.19S
MANHATTAN      LGT RAIN  69  61  75 W5        30.22S
MARYSVILLE     PTSUNNY   75  59  57 W6        30.21F
OLATHE IND     MOSUNNY   79  57  46 NW9       30.20S
OLATHE EXE     PTSUNNY   78  57  48 VRB3      30.19S
SALINA         MOSUNNY   82  54  37 VRB6      30.21S
TOPEKA BILLARD CLOUDY    80  57  45 NW3       30.20S
TOPEKA FORBES  MOSUNNY   81  56  42 VRB5      30.20S
$$



USA.gov is the U.S. government's official web portal to all federal, state and local government web resources and services.